Location: Frysztak
(49.8373°N, 21.6089°E)
Time: 18:04:36
(UTC+02:00)

ISS - Pass Details

Date: 24 September 2018
Orbit: 403 x 408 km, 51.6° (Epoch: 23 October)

Event Time Altitude Azimuth Distance (km) Brightness Sun altitude
Rises 20:14:16 0° 236° (SW) 2,332 0.5 -17.7°
Reaches altitude 10° 20:16:22 10° 232° (SW) 1,473 -0.6 -18.0°
Enters shadow 20:19:23 52° 172° (S) 519 -3.6 -18.4°
